Location: Newark
(35.2672°N, 80.7344°W)
Time: 21:58:31
(UTC+00:00)

Tiros 1 - Pass Details

Date: 24 January 2020
Orbit: 631 x 664 km, 48.4° (Epoch: 19 February)

Event Time Altitude Azimuth Distance (km) Brightness Sun altitude
Rises 18:43:02 0° 255° (WSW) 2,929 10.9 33.2°
Reaches altitude 10° 18:45:29 10° 264° (W) 2,027 10.1 33.0°
Maximum altitude 18:49:50 38° 332° (NNW) 992 8.1 32.7°
Drops below altitude 10° 18:54:15 10° 41° (NE) 2,054 9.3 32.4°
Sets 18:56:45 0° 49° (NE) 2,972 10.1 32.2°
